Prestonsburg, KY

10:33 PM EDT on March 22, 2017 (GMT -0400)
Prestonsburg

Weather History for KK22 - February, 2013

Change the Weather History Date:

Friday, February 22, 2013

  Actual Average (KJKL) Record (KJKL)
Temperature  
Mean Temperature 46 °F -  
Max Temperature 61 °F 48 °F 71 °F (1992)
Min Temperature 31 °F 31 °F 17 °F (1999)
Degree Days  
Heating Degree Days 19    
Moisture  
Dew Point 41 °F    
Average Humidity 74    
Maximum Humidity 99    
Minimum Humidity 54    
Precipitation  
Precipitation 0.00 in - - ()
Sea Level Pressure  
Sea Level Pressure 29.97 in    
Wind  
Wind Speed 8 mph (South)    
Max Wind Speed 20 mph    
Max Gust Speed 34 mph    
Visibility 10 miles    
Events      
Averages and records for this station are not official NWS values.
T = Trace of Precipitation, MM = Missing Value Source: NWS Daily Summary

Daily Weather History Graph

Daily Weather History Graph

Search for Another Location

Airport or City:

Trip Planner

Search our weather history database for the weather conditions in past years. The results will help you decide how hot, cold, wet, or windy it might be!

Date:

Astronomy

Feb. 22, 2013 Rise Set
Actual Time 7:11 AM EST 6:17 PM EST
Civil Twilight 6:44 AM EST 6:43 PM EST
Nautical Twilight 6:14 AM EST 7:14 PM EST
Astronomical Twilight 5:43 AM EST 7:44 PM EST
Moon 3:29 PM EST (2/22) 4:53 AM EST (2/22)
Length of Visible Light 11h 59m
Length of Day
11h 06m
Waxing Gibbous, 90% of the Moon is Illuminated
Feb 22
Waxing Gibbous
Feb 25
Full
Mar 4
Last Quarter
Mar 11
New
Mar 19
First Quarter

Hourly Weather History & Observations

Time (EST) Temp. Windchill Dew Point Humidity Pressure Visibility Wind Dir Wind Speed Gust Speed Precip Events Conditions
12:15 AM 31.1 °F 23.7 °F 26.4 °F 83% 30.09 in 10.0 mi ENE 8.1 mph - N/A   Overcast
12:35 AM 31.1 °F 24.5 °F 26.8 °F 84% 30.09 in 10.0 mi ENE 6.9 mph - N/A   Overcast
12:55 AM 31.1 °F 27.7 °F 27.0 °F 85% 30.09 in 10.0 mi ENE 3.5 mph - N/A   Overcast
1:15 AM 31.6 °F 28.3 °F 28.0 °F 87% 30.07 in 10.0 mi ESE 3.5 mph - N/A   Overcast
1:35 AM 31.6 °F 26.0 °F 28.0 °F 87% 30.07 in 10.0 mi East 5.8 mph - N/A   Overcast
1:55 AM 31.6 °F 24.4 °F 28.6 °F 88% 30.03 in 10.0 mi East 8.1 mph - N/A   Overcast
2:15 AM 32.0 °F 23.0 °F 29.3 °F 90% 30.02 in 10.0 mi ESE 11.5 mph - N/A   Overcast
2:35 AM 32.4 °F 25.3 °F 30.4 °F 92% 30.00 in 7.0 mi East 8.1 mph - N/A   Overcast
2:55 AM 32.5 °F 26.2 °F 31.5 °F 96% 30.00 in 5.0 mi East 6.9 mph - N/A   Overcast
3:15 AM 32.5 °F 28.1 °F 32.0 °F 98% 29.99 in 5.0 mi NE 4.6 mph - N/A   Overcast
3:35 AM 32.9 °F 27.5 °F 32.2 °F 97% 29.98 in 10.0 mi East 5.8 mph - N/A   Overcast
3:55 AM 33.6 °F 26.2 °F 33.3 °F 99% 29.96 in 7.0 mi East 9.2 mph - N/A   Overcast
4:15 AM 34.9 °F 27.7 °F 34.2 °F 97% 29.95 in 10.0 mi ESE 9.2 mph - N/A   Overcast
4:35 AM 35.6 °F 30.7 °F 34.7 °F 97% 29.94 in 7.0 mi ESE 5.8 mph - N/A   Overcast
4:55 AM 36.7 °F 32.0 °F 36.0 °F 97% 29.94 in 10.0 mi ESE 5.8 mph - N/A   Overcast
5:15 AM 37.9 °F 32.1 °F 37.0 °F 97% 29.93 in 10.0 mi ESE 8.1 mph - N/A   Overcast
5:35 AM 39.2 °F 33.6 °F 37.8 °F 95% 29.92 in 10.0 mi SE 8.1 mph - N/A   Overcast
5:55 AM 40.3 °F 34.4 °F 38.7 °F 94% 29.92 in 10.0 mi SE 9.2 mph - N/A   Overcast
6:15 AM 41.4 °F 36.2 °F 39.2 °F 92% 29.92 in 10.0 mi SE 8.1 mph - N/A   Overcast
6:35 AM 42.1 °F 37.7 °F 39.6 °F 91% 29.93 in 10.0 mi SE 6.9 mph - N/A   Overcast
6:55 AM 43.0 °F 39.5 °F 39.7 °F 88% 29.93 in 10.0 mi SSE 5.8 mph - N/A   Overcast
7:15 AM 43.2 °F 39.0 °F 39.7 °F 88% 29.94 in 10.0 mi SSE 6.9 mph - N/A   Overcast
7:35 AM 44.1 °F 40.1 °F 40.1 °F 86% 29.94 in 10.0 mi SSE 6.9 mph - N/A   Overcast
7:55 AM 45.5 °F 40.8 °F 40.1 °F 81% 29.95 in 10.0 mi South 9.2 mph - N/A   Overcast
8:15 AM 46.4 °F 42.4 °F 40.3 °F 79% 29.96 in 10.0 mi SSE 8.1 mph - N/A   Overcast
8:35 AM 47.3 °F - 40.8 °F 78% 29.96 in 10.0 mi SSE 8.1 mph - N/A   Overcast
8:55 AM 47.7 °F - 41.4 °F 79% 29.97 in 10.0 mi South 8.1 mph - N/A   Overcast
9:15 AM 48.9 °F - 41.5 °F 76% 29.97 in 10.0 mi South 8.1 mph - N/A   Overcast
9:35 AM 49.8 °F - 42.3 °F 75% 29.97 in 10.0 mi South 6.9 mph - N/A   Overcast
9:55 AM 51.4 °F - 43.0 °F 73% 29.97 in 10.0 mi South 10.4 mph - N/A   Mostly Cloudy
10:15 AM 52.9 °F - 43.9 °F 71% 29.96 in 10.0 mi South 12.7 mph 17.3 mph N/A   Scattered Clouds
10:35 AM 53.8 °F - 43.9 °F 69% 29.96 in 10.0 mi South 9.2 mph - N/A   Scattered Clouds
10:55 AM 54.7 °F - 43.7 °F 66% 29.96 in 10.0 mi South 11.5 mph - N/A   Scattered Clouds
11:15 AM 56.5 °F - 45.0 °F 65% 29.96 in 10.0 mi SSW 6.9 mph - N/A   Mostly Cloudy
11:35 AM 57.6 °F - 45.1 °F 63% 29.97 in 10.0 mi South 10.4 mph - N/A   Mostly Cloudy
11:55 AM 57.9 °F - 45.3 °F 63% 29.97 in 10.0 mi South 10.4 mph - N/A   Overcast
12:15 PM 58.3 °F - 45.5 °F 62% 29.96 in 10.0 mi SW 10.4 mph 16.1 mph N/A   Overcast
12:35 PM 59.0 °F - 45.7 °F 61% 29.96 in 10.0 mi SW 10.4 mph 19.6 mph N/A   Overcast
12:55 PM 60.1 °F - 45.9 °F 59% 29.95 in 10.0 mi SW 9.2 mph - N/A   Overcast
1:15 PM 60.3 °F - 45.7 °F 59% 29.94 in 10.0 mi SW 13.8 mph 18.4 mph N/A   Overcast
1:35 PM 61.7 °F - 45.9 °F 56% 29.94 in 10.0 mi SW 11.5 mph 18.4 mph N/A   Overcast
1:55 PM 61.0 °F - 45.9 °F 58% 29.94 in 10.0 mi WSW 10.4 mph 17.3 mph N/A   Overcast
2:15 PM 61.0 °F - 46.0 °F 58% 29.95 in 10.0 mi West 11.5 mph 20.7 mph N/A   Overcast
2:35 PM 61.2 °F - 45.1 °F 56% 29.95 in 10.0 mi WSW 19.6 mph 34.5 mph N/A   Overcast
2:55 PM 61.0 °F - 44.4 °F 54% 29.95 in 10.0 mi WSW 13.8 mph 25.3 mph N/A   Mostly Cloudy
3:15 PM 60.6 °F - 44.6 °F 56% 29.95 in 10.0 mi SW 12.7 mph 20.7 mph N/A   Mostly Cloudy
3:35 PM 60.3 °F - 44.8 °F 57% 29.94 in 10.0 mi SW 15.0 mph 19.6 mph N/A   Overcast
3:55 PM 59.5 °F - 44.6 °F 58% 29.95 in 10.0 mi SW 16.1 mph 27.6 mph N/A   Overcast
4:15 PM 59.9 °F - 45.0 °F 58% 29.94 in 10.0 mi SW 12.7 mph 20.7 mph N/A   Mostly Cloudy
4:35 PM 59.7 °F - 44.6 °F 57% 29.94 in 10.0 mi SW 12.7 mph 20.7 mph N/A   Scattered Clouds
4:55 PM 59.0 °F - 44.6 °F 59% 29.94 in 10.0 mi WSW 10.4 mph - N/A   Clear
5:15 PM 59.0 °F - 44.6 °F 59% 29.94 in 10.0 mi SSW 6.9 mph - N/A   Clear
5:35 PM 58.3 °F - 44.2 °F 60% 29.94 in 10.0 mi SW 11.5 mph 23.0 mph N/A   Scattered Clouds
5:55 PM 57.9 °F - 44.6 °F 61% 29.94 in 10.0 mi SW 13.8 mph 18.4 mph N/A   Clear
6:15 PM 57.2 °F - 44.2 °F 62% 29.95 in 10.0 mi SW 10.4 mph 20.7 mph N/A   Clear
6:35 PM 56.7 °F - 44.2 °F 63% 29.96 in 10.0 mi SSW 6.9 mph - N/A   Clear
6:55 PM 56.5 °F - 44.6 °F 64% 29.96 in 10.0 mi SSW 10.4 mph - N/A   Clear
7:15 PM 56.3 °F - 44.6 °F 65% 29.95 in 10.0 mi SSW 9.2 mph - N/A   Clear
7:35 PM 56.3 °F - 45.0 °F 66% 29.95 in 10.0 mi SSW 11.5 mph - N/A   Clear
7:55 PM 55.8 °F - 45.3 °F 68% 29.95 in 10.0 mi SW 10.4 mph 17.3 mph N/A   Clear
8:15 PM 55.4 °F - 45.1 °F 68% 29.96 in 10.0 mi SW 8.1 mph - N/A   Clear
8:35 PM 55.4 °F - 45.3 °F 69% 29.97 in 10.0 mi SW 10.4 mph - N/A   Clear
8:55 PM 55.4 °F - 45.5 °F 69% 29.96 in 10.0 mi SW 8.1 mph - N/A   Clear
9:15 PM 54.7 °F - 45.5 °F 71% 29.96 in 10.0 mi SW 6.9 mph - N/A   Clear
9:35 PM 54.5 °F - 45.5 °F 72% 29.97 in 10.0 mi SW 4.6 mph - N/A   Clear
9:55 PM 54.3 °F - 45.5 °F 72% 29.97 in 10.0 mi SW 5.8 mph - N/A   Clear
10:15 PM 54.1 °F - 45.5 °F 73% 29.97 in 10.0 mi SW 5.8 mph - N/A   Clear
10:35 PM 53.8 °F - 45.5 °F 74% 29.97 in 10.0 mi SW 4.6 mph - N/A   Clear
10:55 PM 53.6 °F - 45.5 °F 74% 29.97 in 10.0 mi WSW 4.6 mph - N/A   Clear
11:15 PM 53.2 °F - 45.3 °F 74% 29.97 in 10.0 mi SW 5.8 mph - N/A   Clear
11:35 PM 53.1 °F - 45.5 °F 75% 29.97 in 10.0 mi WSW 4.6 mph - N/A   Clear
11:55 PM 52.9 °F - 45.5 °F 76% 29.96 in 10.0 mi WSW 5.8 mph - N/A   Clear